Time,TemperatureF,DewpointF,PressureIn,WindDirection,WindDirectionDegrees,WindSpeedMPH,WindSpeedGustMPH,Humidity,HourlyPrecipIn,Conditions,Clouds,dailyrainin,SolarRadiationWatts/m^2,SoftwareType,DateUTC
2013-05-31 00:03:00,68.0,66.0,-100.00,North,349,0.0,1.0,93,0.00,,,0.00,0.000000,,2013-05-31 04:03:00,
2013-05-31 00:12:00,68.0,66.0,-100.00,North,349,0.0,1.0,93,0.00,,,0.00,0.000000,,2013-05-31 04:12:00,
2013-05-31 00:33:00,67.0,66.0,-100.00,North,7,0.0,2.0,96,0.00,,,0.00,0.000000,,2013-05-31 04:33:00,
2013-05-31 00:43:00,67.0,66.0,-100.00,North,7,0.0,2.0,96,0.00,,,0.00,0.000000,,2013-05-31 04:43:00,
2013-05-31 00:53:00,67.0,66.0,-100.00,North,7,0.0,2.0,96,0.00,,,0.00,0.000000,,2013-05-31 04:53:00,
2013-05-31 01:02:00,67.0,66.0,-100.00,North,7,0.0,2.0,96,0.00,,,0.00,0.000000,,2013-05-31 05:02:00,
2013-05-31 01:12:00,67.0,66.0,-100.00,North,7,0.0,2.0,96,0.00,,,0.00,0.000000,,2013-05-31 05:12:00,
2013-05-31 01:32:00,65.0,64.0,-100.00,ESE,103,0.0,1.0,96,0.00,,,0.00,0.000000,,2013-05-31 05:32:00,
2013-05-31 01:42:00,65.0,64.0,-100.00,ESE,103,0.0,1.0,96,0.00,,,0.00,0.000000,,2013-05-31 05:42:00,
2013-05-31 01:52:00,65.0,64.0,-100.00,ESE,103,0.0,1.0,96,0.00,,,0.00,0.000000,,2013-05-31 05:52:00,
2013-05-31 02:02:00,65.0,64.0,-100.00,ESE,103,0.0,1.0,96,0.00,,,0.00,0.000000,,2013-05-31 06:02:00,
2013-05-31 02:12:00,65.0,64.0,-100.00,ESE,103,0.0,1.0,96,0.00,,,0.00,0.000000,,2013-05-31 06:12:00,
2013-05-31 02:32:00,64.0,63.0,-100.00,North,359,0.0,1.0,97,0.00,,,0.00,0.000000,,2013-05-31 06:32:00,
2013-05-31 02:42:00,64.0,63.0,-100.00,North,359,0.0,1.0,97,0.00,,,0.00,0.000000,,2013-05-31 06:42:00,
2013-05-31 02:52:00,64.0,63.0,-100.00,North,359,0.0,1.0,97,0.00,,,0.00,0.000000,,2013-05-31 06:52:00,
2013-05-31 03:02:00,64.0,63.0,-100.00,North,359,0.0,1.0,97,0.00,,,0.00,0.000000,,2013-05-31 07:02:00,
2013-05-31 03:11:00,64.0,63.0,-100.00,North,359,0.0,1.0,97,0.00,,,0.00,0.000000,,2013-05-31 07:11:00,
2013-05-31 03:32:00,63.0,62.0,-100.00,SW,223,0.0,1.0,97,0.00,,,0.00,0.000000,,2013-05-31 07:32:00,
2013-05-31 03:42:00,63.0,62.0,-100.00,SW,223,0.0,1.0,97,0.00,,,0.00,0.000000,,2013-05-31 07:42:00,
2013-05-31 03:53:00,63.0,62.0,-100.00,SW,223,0.0,1.0,97,0.00,,,0.00,0.000000,,2013-05-31 07:53:00,
2013-05-31 04:02:00,63.0,62.0,-100.00,SW,223,0.0,1.0,97,0.00,,,0.00,0.000000,,2013-05-31 08:02:00,
2013-05-31 04:11:00,63.0,62.0,-100.00,SW,223,0.0,1.0,97,0.00,,,0.00,0.000000,,2013-05-31 08:11:00,
2013-05-31 04:32:00,62.0,61.0,-100.00,NNW,335,0.0,1.0,98,0.00,,,0.00,0.000000,,2013-05-31 08:32:00,
2013-05-31 04:42:00,62.0,61.0,-100.00,NNW,335,0.0,1.0,98,0.00,,,0.00,0.000000,,2013-05-31 08:42:00,
2013-05-31 04:52:00,62.0,61.0,-100.00,NNW,335,0.0,1.0,98,0.00,,,0.00,0.000000,,2013-05-31 08:52:00,
2013-05-31 05:01:00,62.0,61.0,-100.00,NNW,335,0.0,1.0,98,0.00,,,0.00,0.000000,,2013-05-31 09:01:00,
2013-05-31 05:11:00,62.0,61.0,-100.00,NNW,335,0.0,1.0,98,0.00,,,0.00,0.000000,,2013-05-31 09:11:00,
2013-05-31 05:32:00,63.0,62.0,-100.00,NNE,26,1.0,3.0,98,0.00,,,0.00,0.000000,,2013-05-31 09:32:00,
2013-05-31 05:43:00,63.0,62.0,-100.00,NNE,26,1.0,3.0,98,0.00,,,0.00,0.000000,,2013-05-31 09:43:00,
2013-05-31 05:53:00,63.0,62.0,-100.00,NNE,26,1.0,3.0,98,0.00,,,0.00,0.000000,,2013-05-31 09:53:00,
2013-05-31 06:02:00,63.0,62.0,-100.00,NNE,26,1.0,3.0,98,0.00,,,0.00,0.000000,,2013-05-31 10:02:00,
2013-05-31 06:12:00,63.0,62.0,-100.00,NNE,26,1.0,3.0,98,0.00,,,0.00,0.000000,,2013-05-31 10:12:00,
2013-05-31 06:33:00,64.0,64.0,-100.00,NNW,332,0.0,2.0,99,0.00,,,0.00,10.000000,,2013-05-31 10:33:00,
2013-05-31 06:42:00,64.0,64.0,-100.00,NNW,332,0.0,2.0,99,0.00,,,0.00,10.000000,,2013-05-31 10:42:00,
2013-05-31 06:52:00,64.0,64.0,-100.00,NNW,332,0.0,2.0,99,0.00,,,0.00,10.000000,,2013-05-31 10:52:00,
2013-05-31 07:02:00,64.0,64.0,-100.00,NNW,332,0.0,2.0,99,0.00,,,0.00,10.000000,,2013-05-31 11:02:00,
2013-05-31 07:12:00,64.0,64.0,-100.00,NNW,332,0.0,2.0,99,0.00,,,0.00,10.000000,,2013-05-31 11:12:00,
2013-05-31 07:32:00,69.0,68.0,-100.00,SSE,168,2.0,4.0,98,0.00,,,0.00,78.000000,,2013-05-31 11:32:00,
2013-05-31 07:42:00,69.0,68.0,-100.00,SSE,168,2.0,4.0,98,0.00,,,0.00,78.000000,,2013-05-31 11:42:00,
2013-05-31 07:52:00,69.0,68.0,-100.00,SSE,168,2.0,4.0,98,0.00,,,0.00,78.000000,,2013-05-31 11:52:00,
2013-05-31 08:01:00,69.0,68.0,-100.00,SSE,168,2.0,4.0,98,0.00,,,0.00,78.000000,,2013-05-31 12:01:00,
2013-05-31 08:11:00,69.0,68.0,-100.00,SSE,168,2.0,4.0,98,0.00,,,0.00,78.000000,,2013-05-31 12:11:00,
2013-05-31 08:32:00,72.0,67.0,-100.00,SSE,159,4.0,6.0,85,0.00,,,0.00,171.000000,,2013-05-31 12:32:00,
2013-05-31 08:42:00,72.0,67.0,-100.00,SSE,159,4.0,6.0,85,0.00,,,0.00,171.000000,,2013-05-31 12:42:00,
2013-05-31 08:52:00,72.0,67.0,-100.00,SSE,159,4.0,6.0,85,0.00,,,0.00,171.000000,,2013-05-31 12:52:00,
2013-05-31 09:01:00,72.0,67.0,-100.00,SSE,159,4.0,6.0,85,0.00,,,0.00,171.000000,,2013-05-31 13:01:00,
2013-05-31 09:11:00,72.0,67.0,-100.00,SSE,159,4.0,6.0,85,0.00,,,0.00,171.000000,,2013-05-31 13:11:00,
2013-05-31 09:32:00,78.0,68.0,-100.00,ESE,118,2.0,6.0,71,0.00,,,0.00,237.000000,,2013-05-31 13:32:00,
2013-05-31 09:42:00,78.0,68.0,-100.00,ESE,118,2.0,6.0,71,0.00,,,0.00,237.000000,,2013-05-31 13:42:00,
2013-05-31 09:52:00,78.0,68.0,-100.00,ESE,118,2.0,6.0,71,0.00,,,0.00,237.000000,,2013-05-31 13:52:00,
2013-05-31 10:02:00,78.0,68.0,-100.00,ESE,118,2.0,6.0,71,0.00,,,0.00,237.000000,,2013-05-31 14:02:00,
2013-05-31 10:11:00,78.0,68.0,-100.00,ESE,118,2.0,6.0,71,0.00,,,0.00,237.000000,,2013-05-31 14:11:00,
2013-05-31 10:32:00,82.0,68.0,-100.00,SE,127,4.0,7.0,62,0.00,,,0.00,295.000000,,2013-05-31 14:32:00,
2013-05-31 10:42:00,82.0,68.0,-100.00,SE,127,4.0,7.0,62,0.00,,,0.00,295.000000,,2013-05-31 14:42:00,
2013-05-31 10:52:00,82.0,68.0,-100.00,SE,127,4.0,7.0,62,0.00,,,0.00,295.000000,,2013-05-31 14:52:00,
2013-05-31 11:01:00,82.0,68.0,-100.00,SE,127,4.0,7.0,62,0.00,,,0.00,295.000000,,2013-05-31 15:01:00,
2013-05-31 11:11:00,82.0,68.0,-100.00,SE,127,4.0,7.0,62,0.00,,,0.00,295.000000,,2013-05-31 15:11:00,
2013-05-31 11:33:00,85.0,68.0,-100.00,SSE,167,4.0,9.0,57,0.00,,,0.00,272.000000,,2013-05-31 15:33:00,
2013-05-31 11:43:00,85.0,68.0,-100.00,SSE,167,4.0,9.0,57,0.00,,,0.00,272.000000,,2013-05-31 15:43:00,
2013-05-31 11:53:00,85.0,68.0,-100.00,SSE,167,4.0,9.0,57,0.00,,,0.00,272.000000,,2013-05-31 15:53:00,
2013-05-31 12:03:00,85.0,68.0,-100.00,SSE,167,4.0,9.0,57,0.00,,,0.00,272.000000,,2013-05-31 16:03:00,
2013-05-31 12:12:00,85.0,68.0,-100.00,SSE,167,4.0,9.0,57,0.00,,,0.00,272.000000,,2013-05-31 16:12:00,
2013-05-31 12:33:00,88.0,67.0,-100.00,SSW,195,4.0,9.0,50,0.00,,,0.00,359.000000,,2013-05-31 16:33:00,
2013-05-31 12:42:00,88.0,67.0,-100.00,SSW,195,4.0,9.0,50,0.00,,,0.00,359.000000,,2013-05-31 16:42:00,
2013-05-31 12:53:00,88.0,67.0,-100.00,SSW,195,4.0,9.0,50,0.00,,,0.00,359.000000,,2013-05-31 16:53:00,
2013-05-31 13:02:00,88.0,67.0,-100.00,SSW,195,4.0,9.0,50,0.00,,,0.00,359.000000,,2013-05-31 17:02:00,
2013-05-31 13:12:00,88.0,67.0,-100.00,SSW,195,4.0,9.0,50,0.00,,,0.00,359.000000,,2013-05-31 17:12:00,
2013-05-31 13:42:00,90.0,68.0,-100.00,SSE,164,5.0,10.0,49,0.00,,,0.00,381.000000,,2013-05-31 17:42:00,
2013-05-31 13:52:00,90.0,68.0,-100.00,SSE,164,5.0,10.0,49,0.00,,,0.00,381.000000,,2013-05-31 17:52:00,
2013-05-31 14:02:00,90.0,68.0,-100.00,SSE,164,5.0,10.0,49,0.00,,,0.00,381.000000,,2013-05-31 18:02:00,
2013-05-31 14:12:00,90.0,68.0,-100.00,SSE,164,5.0,10.0,49,0.00,,,0.00,381.000000,,2013-05-31 18:12:00,
2013-05-31 14:42:00,90.0,65.0,-100.00,SE,142,4.0,9.0,44,0.00,,,0.00,348.000000,,2013-05-31 18:42:00,
2013-05-31 14:52:00,90.0,65.0,-100.00,SE,142,4.0,9.0,44,0.00,,,0.00,348.000000,,2013-05-31 18:52:00,
2013-05-31 15:02:00,90.0,65.0,-100.00,SE,142,4.0,9.0,44,0.00,,,0.00,348.000000,,2013-05-31 19:02:00,
2013-05-31 15:11:00,90.0,65.0,-100.00,SE,142,4.0,9.0,44,0.00,,,0.00,348.000000,,2013-05-31 19:11:00,
2013-05-31 15:42:00,92.0,66.0,-100.00,SSE,163,4.0,8.0,42,0.00,,,0.00,293.000000,,2013-05-31 19:42:00,
2013-05-31 15:52:00,92.0,66.0,-100.00,SSE,163,4.0,8.0,42,0.00,,,0.00,293.000000,,2013-05-31 19:52:00,
2013-05-31 16:02:00,92.0,66.0,-100.00,SSE,163,4.0,8.0,42,0.00,,,0.00,293.000000,,2013-05-31 20:02:00,
2013-05-31 16:11:00,92.0,66.0,-100.00,SSE,163,4.0,8.0,42,0.00,,,0.00,293.000000,,2013-05-31 20:11:00,
2013-05-31 16:32:00,92.0,64.0,-100.00,SSW,197,5.0,12.0,40,0.00,,,0.00,308.000000,,2013-05-31 20:32:00,
2013-05-31 16:42:00,92.0,64.0,-100.00,SSW,197,5.0,12.0,40,0.00,,,0.00,308.000000,,2013-05-31 20:42:00,
2013-05-31 16:52:00,92.0,64.0,-100.00,SSW,197,5.0,12.0,40,0.00,,,0.00,308.000000,,2013-05-31 20:52:00,
2013-05-31 17:01:00,92.0,64.0,-100.00,SSW,197,5.0,12.0,40,0.00,,,0.00,308.000000,,2013-05-31 21:01:00,
2013-05-31 17:11:00,92.0,64.0,-100.00,SSW,197,5.0,12.0,40,0.00,,,0.00,308.000000,,2013-05-31 21:11:00,
2013-05-31 17:33:00,91.0,64.0,-100.00,South,179,6.0,12.0,41,0.00,,,0.00,206.000000,,2013-05-31 21:33:00,
2013-05-31 17:43:00,91.0,64.0,-100.00,South,179,6.0,12.0,41,0.00,,,0.00,206.000000,,2013-05-31 21:43:00,
2013-05-31 17:54:00,91.0,64.0,-100.00,South,179,6.0,12.0,41,0.00,,,0.00,206.000000,,2013-05-31 21:54:00,
2013-05-31 18:03:00,91.0,64.0,-100.00,South,179,6.0,12.0,41,0.00,,,0.00,206.000000,,2013-05-31 22:03:00,
2013-05-31 18:12:00,91.0,64.0,-100.00,South,179,6.0,12.0,41,0.00,,,0.00,206.000000,,2013-05-31 22:12:00,
2013-05-31 18:33:00,91.0,66.0,-100.00,South,176,4.0,13.0,44,0.00,,,0.00,183.000000,,2013-05-31 22:33:00,
2013-05-31 18:42:00,91.0,66.0,-100.00,South,176,4.0,13.0,44,0.00,,,0.00,183.000000,,2013-05-31 22:42:00,
2013-05-31 18:53:00,91.0,66.0,-100.00,South,176,4.0,13.0,44,0.00,,,0.00,183.000000,,2013-05-31 22:53:00,
2013-05-31 19:02:00,91.0,66.0,-100.00,South,176,4.0,13.0,44,0.00,,,0.00,183.000000,,2013-05-31 23:02:00,
2013-05-31 19:12:00,91.0,66.0,-100.00,South,176,4.0,13.0,44,0.00,,,0.00,183.000000,,2013-05-31 23:12:00,
2013-05-31 19:32:00,89.0,65.0,-100.00,South,180,5.0,10.0,45,0.00,,,0.00,112.000000,,2013-05-31 23:32:00,
2013-05-31 19:42:00,89.0,65.0,-100.00,South,180,5.0,10.0,45,0.00,,,0.00,112.000000,,2013-05-31 23:42:00,
2013-05-31 19:52:00,89.0,65.0,-100.00,South,180,5.0,10.0,45,0.00,,,0.00,112.000000,,2013-05-31 23:52:00,
2013-05-31 20:01:00,89.0,65.0,-100.00,South,180,5.0,10.0,45,0.00,,,0.00,112.000000,,2013-06-01 00:01:00,
2013-05-31 20:12:00,89.0,65.0,-100.00,South,180,5.0,10.0,45,0.00,,,0.00,112.000000,,2013-06-01 00:12:00,
2013-05-31 20:32:00,84.0,64.0,-100.00,SSW,198,3.0,8.0,51,0.00,,,0.00,47.000000,,2013-06-01 00:32:00,
2013-05-31 20:42:00,84.0,64.0,-100.00,SSW,198,3.0,8.0,51,0.00,,,0.00,47.000000,,2013-06-01 00:42:00,
2013-05-31 20:52:00,84.0,64.0,-100.00,SSW,198,3.0,8.0,51,0.00,,,0.00,47.000000,,2013-06-01 00:52:00,
2013-05-31 21:02:00,84.0,64.0,-100.00,SSW,198,3.0,8.0,51,0.00,,,0.00,47.000000,,2013-06-01 01:02:00,
2013-05-31 21:11:00,84.0,64.0,-100.00,SSW,198,3.0,8.0,51,0.00,,,0.00,47.000000,,2013-06-01 01:11:00,
2013-05-31 21:32:00,80.0,66.0,-100.00,South,191,2.0,6.0,62,0.00,,,0.00,0.000000,,2013-06-01 01:32:00,
2013-05-31 21:42:00,80.0,66.0,-100.00,South,191,2.0,6.0,62,0.00,,,0.00,0.000000,,2013-06-01 01:42:00,
2013-05-31 21:52:00,80.0,66.0,-100.00,South,191,2.0,6.0,62,0.00,,,0.00,0.000000,,2013-06-01 01:52:00,
2013-05-31 22:02:00,80.0,66.0,-100.00,South,191,2.0,6.0,62,0.00,,,0.00,0.000000,,2013-06-01 02:02:00,
2013-05-31 22:12:00,80.0,66.0,-100.00,South,191,2.0,6.0,62,0.00,,,0.00,0.000000,,2013-06-01 02:12:00,
2013-05-31 22:32:00,75.0,66.0,-100.00,SSW,192,0.0,4.0,74,0.00,,,0.00,0.000000,,2013-06-01 02:32:00,
2013-05-31 22:42:00,75.0,66.0,-100.00,SSW,192,0.0,4.0,74,0.00,,,0.00,0.000000,,2013-06-01 02:42:00,
2013-05-31 22:52:00,75.0,66.0,-100.00,SSW,192,0.0,4.0,74,0.00,,,0.00,0.000000,,2013-06-01 02:52:00,
2013-05-31 23:02:00,75.0,66.0,-100.00,SSW,192,0.0,4.0,74,0.00,,,0.00,0.000000,,2013-06-01 03:02:00,
2013-05-31 23:11:00,75.0,66.0,-100.00,SSW,192,0.0,4.0,74,0.00,,,0.00,0.000000,,2013-06-01 03:11:00,
2013-05-31 23:33:00,71.0,66.0,-100.00,SE,142,0.0,2.0,85,0.00,,,0.00,0.000000,,2013-06-01 03:33:00,
2013-05-31 23:43:00,71.0,66.0,-100.00,SE,142,0.0,2.0,85,0.00,,,0.00,0.000000,,2013-06-01 03:43:00,
2013-05-31 23:53:00,71.0,66.0,-100.00,SE,142,0.0,2.0,85,0.00,,,0.00,0.000000,,2013-06-01 03:53:00,